| time (UTC) | temp F | wind direction | speed MPH | gust MPH | rain 1hr in | rain 24hr in | rain mn in | humidity % | barometer mb |
| 20260506073218 | 58 | 59 | 3.0 | 7.0 | 0.03 | 0.00 | 0.03 | 79 | 1008.8 |
| 20260506072217 | 58 | 24 | 2.0 | 9.0 | 0.03 | 0.00 | 0.03 | 78 | 1008.9 |
| 20260506071218 | 58 | 59 | 4.0 | 7.0 | 0.03 | 0.00 | 0.03 | 79 | 1009.0 |
| 20260506070217 | 59 | 38 | 5.0 | 11.0 | 0.00 | 0.00 | 0.00 | 76 | 1009.1 |
| 20260506062217 | 60 | 35 | 7.0 | 13.0 | 0.00 | 0.00 | 0.00 | 78 | 1008.9 |
| 20260506061655 | 60 | 39 | 8.0 | 13.0 | 0.00 | 0.00 | 0.00 | 77 | 1009.1 |
| 20260506060721 | 60 | 30 | 6.0 | 7.0 | 0.00 | 0.00 | 0.00 | 78 | 1009.1 |
| 20260506051218 | 61 | 45 | 7.0 | 15.0 | 0.00 | 0.00 | 0.00 | 78 | 1009.2 |
| 20260506050217 | 61 | 42 | 5.0 | 13.0 | 0.00 | 0.00 | 0.00 | 78 | 1009.2 |
| 20260506044218 | 62 | 23 | 8.0 | 15.0 | 0.00 | 0.00 | 0.00 | 78 | 1009.0 |
| 20260506043217 | 62 | 51 | 7.0 | 15.0 | 0.00 | 0.00 | 0.00 | 77 | 1009.1 |
| 20260506042702 | 62 | 42 | 9.0 | 17.0 | 0.00 | 0.00 | 0.00 | 77 | 1009.0 |
| 20260506041218 | 63 | 41 | 8.0 | 15.0 | 0.00 | 0.00 | 0.00 | 77 | 1008.9 |
| 20260506040217 | 63 | 55 | 6.0 | 13.0 | 0.00 | 0.00 | 0.00 | 76 | 1008.8 |
| 20260506035652 | 64 | 25 | 9.0 | 12.0 | 0.00 | 0.00 | 0.00 | 76 | 1008.4 |
| 20260506034708 | 64 | 16 | 7.0 | 14.0 | 0.00 | 0.00 | 0.00 | 77 | 1008.2 |
| 20260506033216 | 65 | 51 | 6.0 | 14.0 | 0.00 | 0.00 | 0.00 | 76 | 1008.0 |
| 20260506032216 | 65 | 350 | 7.0 | 12.0 | 0.00 | 0.00 | 0.00 | 76 | 1008.0 |
| 20260506031216 | 66 | 38 | 9.0 | 15.0 | 0.00 | 0.00 | 0.00 | 75 | 1008.0 |
| 20260506030216 | 67 | 49 | 7.0 | 12.0 | 0.00 | 0.00 | 0.00 | 75 | 1007.7 |
| 20260506025659 | 67 | 52 | 6.0 | 13.0 | 0.00 | 0.00 | 0.00 | 75 | 1007.6 |
| 20260506024214 | 68 | 25 | 6.0 | 12.0 | 0.00 | 0.00 | 0.00 | 74 | 1007.6 |
| 20260506023215 | 68 | 34 | 7.0 | 12.0 | 0.00 | 0.00 | 0.00 | 74 | 1007.2 |
| 20260506022215 | 68 | 31 | 6.0 | 11.0 | 0.00 | 0.00 | 0.00 | 73 | 1006.8 |
| 20260506021701 | 68 | 345 | 4.0 | 10.0 | 0.00 | 0.00 | 0.00 | 72 | 1006.5 |
| 20260506020215 | 68 | 47 | 4.0 | 11.0 | 0.00 | 0.00 | 0.00 | 72 | 1006.6 |
| 20260506015215 | 68 | 42 | 8.0 | 12.0 | 0.00 | 0.00 | 0.00 | 71 | 1006.0 |
| 20260506014648 | 69 | 32 | 5.0 | 11.0 | 0.00 | 0.00 | 0.00 | 71 | 1006.0 |
| 20260506013215 | 69 | 51 | 5.0 | 13.0 | 0.00 | 0.00 | 0.00 | 71 | 1005.8 |
| 20260506012214 | 69 | 51 | 8.0 | 13.0 | 0.00 | 0.00 | 0.00 | 70 | 1005.7 |
| 20260506011216 | 70 | 44 | 7.0 | 14.0 | 0.00 | 0.00 | 0.00 | 69 | 1005.9 |
| 20260506010659 | 71 | 8 | 6.0 | 9.0 | 0.00 | 0.00 | 0.00 | 69 | 1005.6 |
| 20260506005215 | 72 | 45 | 5.0 | 11.0 | 0.00 | 0.00 | 0.00 | 67 | 1005.5 |
| 20260506004216 | 72 | 37 | 6.0 | 12.0 | 0.00 | 0.00 | 0.00 | 68 | 1004.9 |
| 20260506003216 | 73 | 45 | 5.0 | 9.0 | 0.00 | 0.00 | 0.00 | 68 | 1004.7 |
| 20260506002215 | 73 | 31 | 6.0 | 11.0 | 0.00 | 0.00 | 0.00 | 66 | 1004.6 |
| 20260506001654 | 74 | 20 | 8.0 | 16.0 | 0.00 | 0.00 | 0.00 | 66 | 1004.4 |
| 20260506000702 | 75 | 35 | 10.0 | 17.0 | 0.00 | 0.00 | 0.00 | 66 | 1004.5 |
| 20260505235217 | 76 | 58 | 8.0 | 14.0 | 0.00 | 0.00 | 0.00 | 64 | 1004.4 |
| 20260505234217 | 78 | 25 | 10.0 | 17.0 | 0.00 | 0.00 | 0.00 | 63 | 1004.1 |
| 20260505233654 | 78 | 298 | 3.0 | 11.0 | 0.00 | 0.00 | 0.00 | 62 | 1004.0 |
| 20260505232217 | 79 | 47 | 6.0 | 16.0 | 0.00 | 0.00 | 0.00 | 61 | 1004.2 |
| 20260505231218 | 81 | 51 | 5.0 | 14.0 | 0.00 | 0.00 | 0.00 | 61 | 1003.8 |
| 20260505230217 | 82 | 68 | 5.0 | 13.0 | 0.00 | 0.00 | 0.00 | 59 | 1003.8 |
| 20260505225217 | 82 | 344 | 4.0 | 12.0 | 0.00 | 0.00 | 0.00 | 58 | 1003.6 |
| 20260505224217 | 83 | 28 | 4.0 | 11.0 | 0.00 | 0.00 | 0.00 | 57 | 1003.3 |
| 20260505223216 | 84 | 285 | 3.0 | 12.0 | 0.00 | 0.00 | 0.00 | 56 | 1003.3 |
| 20260505222217 | 85 | 38 | 4.0 | 12.0 | 0.00 | 0.00 | 0.00 | 51 | 1003.1 |
| 20260505221217 | 86 | 44 | 6.0 | 10.0 | 0.00 | 0.00 | 0.00 | 49 | 1003.0 |
| 20260505220216 | 86 | 290 | 4.0 | 11.0 | 0.00 | 0.00 | 0.00 | 48 | 1002.8 |
| 20260505215217 | 87 | 24 | 5.0 | 13.0 | 0.00 | 0.00 | 0.00 | 50 | 1002.9 |
| 20260505214216 | 89 | 54 | 7.0 | 14.0 | 0.00 | 0.00 | 0.00 | 45 | 1003.0 |
| 20260505213217 | 91 | 293 | 5.0 | 7.0 | 0.00 | 0.00 | 0.00 | 51 | 1002.8 |
| 20260505212218 | 90 | 309 | 4.0 | 9.0 | 0.00 | 0.00 | 0.00 | 49 | 1002.9 |
| 20260505211217 | 91 | 272 | 4.0 | 9.0 | 0.00 | 0.00 | 0.00 | 49 | 1003.1 |
| 20260505210218 | 90 | 296 | 5.0 | 13.0 | 0.00 | 0.00 | 0.00 | 49 | 1003.1 |
| 20260505205216 | 90 | 274 | 5.0 | 11.0 | 0.00 | 0.00 | 0.00 | 50 | 1003.3 |
| 20260505204217 | 90 | 282 | 5.0 | 12.0 | 0.00 | 0.00 | 0.00 | 53 | 1003.2 |
| 20260505203218 | 90 | 290 | 4.0 | 7.0 | 0.00 | 0.00 | 0.00 | 55 | 1003.4 |
| 20260505202216 | 91 | 293 | 6.0 | 10.0 | 0.00 | 0.00 | 0.00 | 53 | 1003.5 |
| 20260505201217 | 89 | 123 | 7.0 | 14.0 | 0.00 | 0.00 | 0.00 | 55 | 1003.6 |
| 20260505200216 | 89 | 245 | 4.0 | 10.0 | 0.00 | 0.00 | 0.00 | 56 | 1003.7 |
| 20260505195217 | 90 | 235 | 3.0 | 9.0 | 0.00 | 0.00 | 0.00 | 55 | 1003.6 |
| 20260505194216 | 89 | 271 | 4.0 | 12.0 | 0.00 | 0.00 | 0.00 | 56 | 1003.7 |
| 20260505193656 | 89 | 279 | 4.0 | 10.0 | 0.00 | 0.00 | 0.00 | 59 | 1003.8 |
| 20260505192217 | 89 | 286 | 3.0 | 7.0 | 0.00 | 0.00 | 0.00 | 59 | 1003.8 |
| 20260505191217 | 89 | 274 | 2.0 | 7.0 | 0.00 | 0.00 | 0.00 | 59 | 1003.7 |
| 20260505190216 | 88 | 195 | 2.0 | 9.0 | 0.00 | 0.00 | 0.00 | 58 | 1003.8 |
| 20260505185217 | 87 | 228 | 3.0 | 13.0 | 0.00 | 0.00 | 0.00 | 61 | 1003.7 |
| 20260505184216 | 85 | 173 | 3.0 | 10.0 | 0.00 | 0.00 | 0.00 | 63 | 1003.8 |
| 20260505183217 | 85 | 228 | 3.0 | 12.0 | 0.00 | 0.00 | 0.00 | 62 | 1004.0 |
| 20260505182217 | 85 | 271 | 3.0 | 9.0 | 0.00 | 0.00 | 0.00 | 63 | 1004.0 |
| 20260505181217 | 85 | 248 | 3.0 | 10.0 | 0.00 | 0.00 | 0.00 | 62 | 1003.8 |
| 20260505180217 | 85 | 189 | 3.0 | 10.0 | 0.00 | 0.00 | 0.00 | 63 | 1004.0 |
| 20260505180133 | 84 | 300 | 4.0 | 13.0 | 0.00 | 0.00 | 0.00 | 65 | 1004.0 |
| 20260505174217 | 84 | 219 | 3.0 | 10.0 | 0.00 | 0.00 | 0.00 | 65 | 1003.9 |
| 20260505174140 | 84 | 240 | 2.0 | 9.0 | 0.00 | 0.00 | 0.00 | 65 | 1003.9 |
| 20260505172216 | 84 | 276 | 2.0 | 9.0 | 0.00 | 0.00 | 0.00 | 68 | 1003.9 |
| 20260505171216 | 83 | 220 | 2.0 | 9.0 | 0.00 | 0.00 | 0.00 | 67 | 1003.9 |
| 20260505170217 | 82 | 202 | 2.0 | 9.0 | 0.00 | 0.00 | 0.00 | 68 | 1004.2 |
| 20260505165216 | 81 | 243 | 3.0 | 15.0 | 0.00 | 0.00 | 0.00 | 69 | 1004.0 |
| 20260505164216 | 81 | 106 | 3.0 | 10.0 | 0.00 | 0.00 | 0.00 | 68 | 1004.1 |
| 20260505163216 | 81 | 214 | 2.0 | 12.0 | 0.00 | 0.00 | 0.00 | 69 | 1003.9 |
| 20260505162216 | 80 | 235 | 3.0 | 9.0 | 0.00 | 0.00 | 0.00 | 70 | 1003.9 |
| 20260505161216 | 80 | 193 | 3.0 | 11.0 | 0.00 | 0.00 | 0.00 | 71 | 1003.8 |
| 20260505160217 | 79 | 281 | 2.0 | 7.0 | 0.00 | 0.00 | 0.00 | 72 | 1003.8 |
| 20260505152216 | 77 | 193 | 4.0 | 10.0 | 0.00 | 0.00 | 0.00 | 74 | 1003.7 |
| 20260505151215 | 77 | 224 | 3.0 | 11.0 | 0.00 | 0.00 | 0.00 | 74 | 1003.6 |
| 20260505150216 | 76 | 245 | 3.0 | 11.0 | 0.00 | 0.00 | 0.00 | 77 | 1003.8 |
| 20260505140214 | 73 | 266 | 2.0 | 10.0 | 0.00 | 0.00 | 0.00 | 81 | 1003.5 |
| 20260505130215 | 71 | 155 | 3.0 | 11.0 | 0.00 | 0.00 | 0.00 | 83 | 1003.4 |
| 20260505124215 | 71 | 275 | 2.0 | 9.0 | 0.00 | 0.00 | 0.00 | 84 | 1003.0 |
| 20260505123214 | 71 | 193 | 2.0 | 9.0 | 0.00 | 0.00 | 0.00 | 84 | 1003.1 |
| 20260505122215 | 70 | 214 | 2.0 | 7.0 | 0.00 | 0.00 | 0.00 | 84 | 1002.9 |
| 20260505121215 | 70 | 266 | 3.0 | 9.0 | 0.00 | 0.00 | 0.00 | 84 | 1002.7 |
| 20260505120215 | 70 | 144 | 1.0 | 10.0 | 0.00 | 0.00 | 0.00 | 84 | 1002.7 |
| 20260505115214 | 70 | 190 | 2.0 | 9.0 | 0.00 | 0.00 | 0.00 | 84 | 1002.8 |
| 20260505114216 | 70 | 259 | 3.0 | 10.0 | 0.00 | 0.00 | 0.00 | 84 | 1002.6 |
| 20260505113214 | 70 | 244 | 1.0 | 9.0 | 0.00 | 0.00 | 0.00 | 84 | 1002.5 |
| 20260505112214 | 70 | 233 | 2.0 | 6.0 | 0.00 | 0.00 | 0.00 | 84 | 1002.4 |
| 20260505111215 | 70 | 258 | 3.0 | 9.0 | 0.00 | 0.00 | 0.00 | 84 | 1002.5 |
| 20260505110215 | 70 | 204 | 2.0 | 9.0 | 0.00 | 0.00 | 0.00 | 84 | 1002.6 |
| 20260505102216 | 71 | 276 | 3.0 | 10.0 | 0.00 | 0.00 | 0.00 | 83 | 1002.6 |
| 20260505101216 | 71 | 202 | 1.0 | 7.0 | 0.00 | 0.00 | 0.00 | 83 | 1002.6 |
| 20260505100216 | 71 | 226 | 4.0 | 11.0 | 0.00 | 0.00 | 0.00 | 82 | 1002.8 |
| 20260505095701 | 71 | 251 | 3.0 | 7.0 | 0.00 | 0.00 | 0.00 | 82 | 1002.8 |
| 20260505094215 | 71 | 213 | 2.0 | 11.0 | 0.00 | 0.00 | 0.00 | 82 | 1002.7 |
| 20260505093216 | 71 | 262 | 3.0 | 11.0 | 0.00 | 0.00 | 0.00 | 82 | 1002.8 |
| 20260505092216 | 71 | 279 | 2.0 | 9.0 | 0.00 | 0.00 | 0.00 | 81 | 1002.9 |
| 20260505091216 | 71 | 195 | 2.0 | 5.0 | 0.00 | 0.00 | 0.00 | 81 | 1003.0 |
| 20260505091146 | 71 | 219 | 2.0 | 14.0 | 0.00 | 0.00 | 0.00 | 81 | 1003.0 |
| 20260505085216 | 72 | 209 | 3.0 | 10.0 | 0.00 | 0.00 | 0.00 | 81 | 1003.1 |
| 20260505084216 | 72 | 169 | 3.0 | 12.0 | 0.00 | 0.00 | 0.00 | 80 | 1003.0 |
| 20260505083215 | 72 | 213 | 3.0 | 9.0 | 0.00 | 0.00 | 0.00 | 80 | 1003.1 |
| 20260505082217 | 72 | 182 | 3.0 | 10.0 | 0.00 | 0.00 | 0.00 | 80 | 1003.0 |
| 20260505081215 | 72 | 258 | 2.0 | 10.0 | 0.00 | 0.00 | 0.00 | 79 | 1003.1 |
| 20260505080215 | 72 | 186 | 2.0 | 7.0 | 0.00 | 0.00 | 0.00 | 79 | 1003.0 |